Location: Unspecified
(0.0000°N, 0.0000°E)
Time: 20:25:37
(UTC+00:00)

COSMOS 2406 - Pass Details

Date: 27 January 2013
Orbit: 842 x 866 km, 71.0° (Epoch: 24 July)

Event Time Altitude Azimuth Distance (km) Brightness Sun altitude
Rises 18:32:30 0° 339° (NNW) 3,441 6.4 -4.7°
Reaches altitude 10° 18:34:58 10° 337° (NNW) 2,508 5.7 -5.2°
Maximum altitude 18:40:42 68° 255° (WSW) 937 3.8 -6.6°
Drops below altitude 10° 18:46:28 10° 173° (S) 2,519 5.8 -8.0°
Sets 18:48:58 0° 170° (S) 3,457 6.5 -8.6°
